Regional Weather Roundup
Issued by NWS

Home | Current Version | Previous Version | Graphics & Text | Print | Product List | Glossary On
Versions: 1 2 3 4 5 6 7 8 9 10 11 12 13 14 15 16 17 18 19 20 21 22 23 24 25 26 27 28 29 30 31 32 33 34 35 36 37 38 39 40 41 42 43 44 45 46 47 48 49 50
000
ASUS43 KFSD 020210
RWRSD

WEATHER ROUNDUP FOR SOUTH DAKOTA
NATIONAL WEATHER SERVICE SIOUX FALLS SD
900 PM CDT WED OCT 01 2014

NOTE: "FAIR" INDICATES FEW OR NO CLOUDS BELOW 12,000 FEET WITH NO
SIGNIFICANT WEATHER AND/OR OBSTRUCTIONS TO VISIBILITY.


SDZ001>005-009-010-012>017-020300-
NORTHWEST AND NORTH CENTRAL SOUTH DAKOTA

CITY           SKY/WX    TMP DP  RH WIND       PRES   REMARKS
BUFFALO          N/A     47  40  76 W7        29.86R
FAITH            N/A     49  44  83 W8        29.91R
MOBRIDGE       PTCLDY    53  48  83 NW6       29.84R
$$

SDZ012>016-024>037-041>051-057-063-072>074-020300-
SOUTHWEST AND SOUTH CENTRAL SOUTH DAKOTA

CITY           SKY/WX    TMP DP  RH WIND       PRES   REMARKS
RAPID CTY ARPT CLOUDY    52  41  66 N8        29.95R
PIERRE         MOCLDY    52  45  77 NW6       29.87R
CUSTER         CLOUDY    43  37  79 N5        29.99R
ELLSWORTH AFB  CLOUDY    53  41  64 N9        29.94S
PHILIP         LGT RAIN  54  48  80 NW7       29.92R
PINE RIDGE     LGT RAIN  49  47  93 CALM      29.97R
WINNER         FAIR      59  48  67 N13       29.88R
$$

SDZ004>011-016>023-039-040-020300-
NORTHEAST SOUTH DAKOTA

CITY           SKY/WX    TMP DP  RH WIND       PRES   REMARKS
ABERDEEN       PTCLDY    57  48  72 W8        29.83R
WATERTOWN      PTCLDY    54  48  80 N3        29.83R
SISSETON         N/A     54  48  80 W5        29.80R
$$

SDZ017-020-022-023-036>040-048>070-020300-
SOUTHEAST SOUTH DAKOTA

CITY           SKY/WX    TMP DP  RH WIND       PRES   REMARKS
SIOUX FALLS    PTCLDY    61  53  75 W3        29.81R
HURON          CLEAR     57  47  69 N7        29.84R
CHAMBERLAIN    MOCLDY    59  47  65 N13G20    29.86R
MITCHELL       PTCLDY    64  50  60 N12       29.83R
YANKTON        PTCLDY    59  52  77 NW8       29.81R
$$

ABBREVIATIONS USED IN REMARKS
   TC - TEMPERATURE IN CELSIUS
  WCI - WIND CHILL INDEX
   HX - HEAT INDEX
  VSB - VISIBILITY




USA.gov is the U.S. government's official web portal to all federal, state and local government web resources and services.